Home   Weather   Mississauga   Past weeks

Flag for Canada Past Weather in Mississauga, Ontario, Canada — Yesterday and Last 2 Weeks

Now
72 °F

Cloudy.


Feels Like: 75 °F
Forecast: N/A
Wind: 6 mph from Southeast

Location: Toronto Pearson International Airport

Current Time: Jul 26, 2017 at 7:00:35 pm

Latest Report: Jul 26, 2017 at 5:00 pm


Visibility: 15 mi

Pressure: 30.06 "Hg

Humidity: 65%

Dew Point: 59 °F

Location of MississaugaLocation

Past Weather in Mississauga — Graph

°F

Mississauga Temperature Yesterday

Maximum temperature yesterday: 72 °F (at 1:00 pm)
Minimum temperature yesterday: 61 °F (at 3:00 am)
Average temperature yesterday: 66 °F

High & Low Weather Summary for the Past Weeks

 TemperatureHumidityPressure
High90 °F (Jul 19, 5:00 pm)94% (Jul 12, 7:00 am)30.23 "Hg (Jul 12, 7:00 am)
Low59 °F (Jul 26, 4:00 am)35% (Jul 21, 5:00 pm)29.71 "Hg (Jul 24, 5:00 am)
Average71 °F73%29.96 "Hg
* Reported Jul 11 5:00 pm — Jul 26 5:00 pm, Mississauga. Weather by CustomWeather, © 2017

Note: Actual official high and low records may vary slightly from our data, if they occured in-between our weather recording intervals... More about our weather records

Advertising

Mississauga Weather History for the Previous 24 Hours

Scroll right to see more
 ConditionsComfort  
Time TempWeatherWind HumidityBarometerVisibility
5:00 pm
Wed, Jul 26
72 °FCloudy.6 mph65%30.06 "Hg15 mi
4:00 pm70 °FMostly cloudy.7 mph69%30.08 "Hg15 mi
3:00 pm70 °FMostly cloudy.7 mph64%30.09 "Hg15 mi
2:00 pm68 °FMostly cloudy.9 mph69%30.09 "Hg15 mi
1:00 pm70 °FPartly sunny.8 mph69%30.14 "Hg15 mi
12:00 pm70 °FOvercast.7 mph64%30.17 "Hg15 mi
11:00 am68 °FPartly sunny.7 mph69%30.18 "Hg15 mi
10:00 am70 °FPartly sunny.6 mph69%30.18 "Hg15 mi
9:00 am66 °FPartly sunny.6 mph73%30.19 "Hg15 mi
8:00 am64 °FPartly sunny.2 mph78%30.20 "Hg15 mi
7:00 am61 °FPartly sunny.3 mph83%30.21 "Hg15 mi
6:00 am61 °FScattered clouds.2 mph83%30.20 "Hg15 mi
5:00 am59 °FPassing clouds.3 mph82%30.20 "Hg15 mi
4:00 am59 °FClear.5 mph77%30.21 "Hg15 mi
3:00 am61 °FPassing clouds.3 mph83%30.21 "Hg15 mi
2:00 am61 °FClear.5 mph83%30.21 "Hg15 mi
1:00 am64 °FClear.3 mph73%30.20 "Hg15 mi
12:00 am64 °FClear.2 mph73%30.22 "Hg15 mi
11:00 pm
Tue, Jul 25
64 °FClear.5 mph73%30.22 "Hg15 mi
10:00 pm66 °FClear.3 mph68%30.23 "Hg15 mi
9:00 pm66 °FPassing clouds.6 mph68%30.22 "Hg15 mi
8:00 pm70 °FPassing clouds.7 mph57%30.22 "Hg15 mi
7:00 pm70 °FPassing clouds.8 mph60%30.22 "Hg15 mi
Weather by CustomWeather, © 2017

See weather overviewHow to use our weather pages